Time,TemperatureF,DewpointF,PressureIn,WindDirection,WindDirectionDegrees,WindSpeedMPH,WindSpeedGustMPH,Humidity,HourlyPrecipIn,Conditions,Clouds,dailyrainin,SoftwareType,DateUTC
2013-02-20 00:12:00,35.0,33.0,29.65,West,270,8.0,14.0,93,0.00,,,0.19,weatherlink.com 1.10,2013-02-20 05:12:00,
2013-02-20 00:27:00,34.8,32.0,29.65,West,278,5.0,13.0,88,0.00,,,0.19,weatherlink.com 1.10,2013-02-20 05:27:00,
2013-02-20 00:42:00,34.7,30.0,29.64,NW,306,6.0,13.0,84,0.00,,,0.19,weatherlink.com 1.10,2013-02-20 05:42:00,
2013-02-20 00:57:00,34.6,29.0,29.65,WNW,290,5.0,14.0,79,0.00,,,0.19,weatherlink.com 1.10,2013-02-20 05:57:00,
2013-02-20 01:12:00,34.4,28.0,29.65,WNW,296,4.0,13.0,77,0.00,,,0.19,weatherlink.com 1.10,2013-02-20 06:12:00,
2013-02-20 01:27:00,34.1,27.0,29.66,WNW,294,8.0,13.0,76,0.00,,,0.19,weatherlink.com 1.10,2013-02-20 06:27:00,
2013-02-20 01:42:00,33.9,26.0,29.66,WNW,294,4.0,11.0,74,0.00,,,0.19,weatherlink.com 1.10,2013-02-20 06:42:00,
2013-02-20 01:57:00,33.5,26.0,29.66,WNW,288,7.0,12.0,73,0.00,,,0.19,weatherlink.com 1.10,2013-02-20 06:57:00,
2013-02-20 02:12:00,33.2,25.0,29.66,NW,304,11.0,14.0,72,0.00,,,0.19,weatherlink.com 1.10,2013-02-20 07:12:00,
2013-02-20 02:27:00,32.8,25.0,29.67,WNW,298,5.0,11.0,72,0.00,,,0.19,weatherlink.com 1.10,2013-02-20 07:27:00,
2013-02-20 02:42:00,32.6,25.0,29.67,WNW,298,4.0,11.0,73,0.00,,,0.19,weatherlink.com 1.10,2013-02-20 07:42:00,
2013-02-20 03:12:00,32.4,24.0,29.67,WNW,298,6.0,15.0,70,0.00,,,0.19,weatherlink.com 1.10,2013-02-20 08:12:00,
2013-02-20 03:27:00,32.1,22.0,29.67,NNW,340,5.0,18.0,66,0.00,,,0.19,weatherlink.com 1.10,2013-02-20 08:27:00,
2013-02-20 03:42:00,31.6,22.0,29.67,NNW,340,6.0,12.0,67,0.00,,,0.19,weatherlink.com 1.10,2013-02-20 08:42:00,
2013-02-20 03:57:00,31.2,22.0,29.68,NNW,340,5.0,9.0,69,0.00,,,0.19,weatherlink.com 1.10,2013-02-20 08:57:00,
2013-02-20 04:12:00,30.7,22.0,29.68,NNW,340,5.0,9.0,70,0.00,,,0.00,weatherlink.com 1.10,2013-02-20 09:12:00,
2013-02-20 04:27:00,30.4,22.0,29.68,NNW,340,4.0,9.0,71,0.00,,,0.00,weatherlink.com 1.10,2013-02-20 09:27:00,
2013-02-20 04:42:00,30.3,22.0,29.70,NNW,340,4.0,9.0,72,0.00,,,0.00,weatherlink.com 1.10,2013-02-20 09:42:00,
2013-02-20 04:57:00,29.7,20.0,29.70,NNW,340,6.0,12.0,68,0.00,,,0.00,weatherlink.com 1.10,2013-02-20 09:57:00,
2013-02-20 05:12:00,28.9,19.0,29.70,NNW,340,8.0,14.0,66,0.00,,,0.00,weatherlink.com 1.10,2013-02-20 10:12:00,
2013-02-20 05:28:00,28.3,17.0,29.71,NNW,340,12.0,16.0,64,0.00,,,0.00,weatherlink.com 1.10,2013-02-20 10:28:00,
2013-02-20 05:43:00,27.7,17.0,29.72,NNW,340,5.0,14.0,65,0.00,,,0.00,weatherlink.com 1.10,2013-02-20 10:43:00,
2013-02-20 05:58:00,27.2,17.0,29.73,NNW,340,8.0,11.0,65,0.00,,,0.00,weatherlink.com 1.10,2013-02-20 10:58:00,
2013-02-20 06:13:00,26.9,17.0,29.74,NNW,340,6.0,9.0,66,0.00,,,0.00,weatherlink.com 1.10,2013-02-20 11:13:00,
2013-02-20 06:28:00,26.5,16.0,29.74,NNW,340,0.0,6.0,65,0.00,,,0.00,weatherlink.com 1.10,2013-02-20 11:28:00,
2013-02-20 06:43:00,26.0,16.0,29.75,NNW,340,2.0,4.0,67,0.00,,,0.00,weatherlink.com 1.10,2013-02-20 11:43:00,
2013-02-20 06:58:00,26.6,17.0,29.75,NNW,340,3.0,9.0,66,0.00,,,0.00,weatherlink.com 1.10,2013-02-20 11:58:00,
2013-02-20 07:13:00,26.7,17.0,29.75,NNW,340,3.0,10.0,67,0.00,,,0.00,weatherlink.com 1.10,2013-02-20 12:13:00,
2013-02-20 07:28:00,26.7,16.0,29.76,NNW,340,4.0,10.0,65,0.00,,,0.00,weatherlink.com 1.10,2013-02-20 12:28:00,
2013-02-20 07:43:00,26.6,15.0,29.77,NNW,340,8.0,15.0,63,0.00,,,0.00,weatherlink.com 1.10,2013-02-20 12:43:00,
2013-02-20 07:58:00,26.8,15.0,29.77,NNW,340,10.0,14.0,62,0.00,,,0.00,weatherlink.com 1.10,2013-02-20 12:58:00,
2013-02-20 08:13:00,27.1,15.0,29.77,NNW,340,8.0,17.0,60,0.00,,,0.00,weatherlink.com 1.10,2013-02-20 13:13:00,
2013-02-20 08:28:00,27.7,15.0,29.77,NNW,340,7.0,14.0,58,0.00,,,0.00,weatherlink.com 1.10,2013-02-20 13:28:00,
2013-02-20 08:43:00,28.1,14.0,29.77,NNW,339,7.0,17.0,56,0.00,,,0.00,weatherlink.com 1.10,2013-02-20 13:43:00,
2013-02-20 08:58:00,27.8,14.0,29.77,NNW,342,7.0,20.0,56,0.00,,,0.00,weatherlink.com 1.10,2013-02-20 13:58:00,
2013-02-20 09:13:00,27.6,14.0,29.77,NW,326,7.0,21.0,57,0.00,,,0.00,weatherlink.com 1.10,2013-02-20 14:13:00,
2013-02-20 09:28:00,27.6,14.0,29.77,NNW,331,8.0,23.0,56,0.00,,,0.00,weatherlink.com 1.10,2013-02-20 14:28:00,
2013-02-20 09:43:00,27.9,14.0,29.77,NNW,335,7.0,21.0,57,0.00,,,0.00,weatherlink.com 1.10,2013-02-20 14:43:00,
2013-02-20 09:58:00,27.6,14.0,29.77,WNW,296,11.0,20.0,57,0.00,,,0.00,weatherlink.com 1.10,2013-02-20 14:58:00,
2013-02-20 10:13:00,27.7,14.0,29.76,NNW,338,10.0,18.0,57,0.00,,,0.00,weatherlink.com 1.10,2013-02-20 15:13:00,
2013-02-20 10:28:00,28.6,14.0,29.77,NW,310,9.0,18.0,55,0.00,,,0.00,weatherlink.com 1.10,2013-02-20 15:28:00,
2013-02-20 10:43:00,28.7,14.0,29.77,NW,316,10.0,20.0,54,0.00,,,0.00,weatherlink.com 1.10,2013-02-20 15:43:00,
2013-02-20 10:59:00,28.1,14.0,29.77,North,5,7.0,17.0,55,0.00,,,0.00,weatherlink.com 1.10,2013-02-20 15:59:00,
2013-02-20 11:14:00,28.3,14.0,29.75,North,355,9.0,17.0,56,0.00,,,0.00,weatherlink.com 1.10,2013-02-20 16:14:00,
2013-02-20 11:29:00,27.8,14.0,29.75,NW,324,10.0,16.0,56,0.00,,,0.00,weatherlink.com 1.10,2013-02-20 16:29:00,
2013-02-20 11:44:00,28.3,14.0,29.75,WNW,303,13.0,18.0,55,0.00,,,0.00,weatherlink.com 1.10,2013-02-20 16:44:00,
2013-02-20 11:59:00,28.5,13.0,29.74,North,355,12.0,18.0,53,0.00,,,0.00,weatherlink.com 1.10,2013-02-20 16:59:00,
2013-02-20 12:14:00,29.4,14.0,29.74,NW,318,6.0,17.0,52,0.00,,,0.00,weatherlink.com 1.10,2013-02-20 17:14:00,
2013-02-20 12:29:00,29.3,13.0,29.74,NNW,332,12.0,19.0,50,0.00,,,0.00,weatherlink.com 1.10,2013-02-20 17:29:00,
2013-02-20 12:44:00,29.3,11.0,29.74,NNE,14,5.0,22.0,47,0.00,,,0.00,weatherlink.com 1.10,2013-02-20 17:44:00,
2013-02-20 12:59:00,28.9,12.0,29.73,North,360,9.0,17.0,49,0.00,,,0.00,weatherlink.com 1.10,2013-02-20 17:59:00,
2013-02-20 13:14:00,28.8,12.0,29.74,NW,321,11.0,27.0,49,0.00,,,0.00,weatherlink.com 1.10,2013-02-20 18:14:00,
2013-02-20 13:29:00,30.7,13.0,29.74,North,355,6.0,23.0,47,0.00,,,0.00,weatherlink.com 1.10,2013-02-20 18:29:00,
2013-02-20 13:44:00,28.8,12.0,29.74,WNW,296,7.0,21.0,49,0.00,,,0.00,weatherlink.com 1.10,2013-02-20 18:44:00,
2013-02-20 13:59:00,30.4,12.0,29.74,NW,321,6.0,15.0,46,0.00,,,0.00,weatherlink.com 1.10,2013-02-20 18:59:00,
2013-02-20 14:14:00,28.9,13.0,29.75,NW,310,13.0,20.0,51,0.00,,,0.00,weatherlink.com 1.10,2013-02-20 19:14:00,
2013-02-20 14:29:00,29.0,13.0,29.74,NW,317,6.0,20.0,51,0.00,,,0.00,weatherlink.com 1.10,2013-02-20 19:29:00,
2013-02-20 14:44:00,29.1,12.0,29.75,NW,319,9.0,16.0,49,0.00,,,0.00,weatherlink.com 1.10,2013-02-20 19:44:00,
2013-02-20 14:59:00,28.4,12.0,29.75,WNW,296,12.0,22.0,51,0.00,,,0.00,weatherlink.com 1.10,2013-02-20 19:59:00,
2013-02-20 15:14:00,28.0,13.0,29.76,NW,325,6.0,16.0,53,0.00,,,0.00,weatherlink.com 1.10,2013-02-20 20:14:00,
2013-02-20 15:29:00,29.0,12.0,29.77,WNW,296,12.0,20.0,50,0.00,,,0.00,weatherlink.com 1.10,2013-02-20 20:29:00,
2013-02-20 15:44:00,28.9,12.0,29.78,NW,320,12.0,23.0,49,0.00,,,0.00,weatherlink.com 1.10,2013-02-20 20:44:00,
2013-02-20 15:59:00,27.8,13.0,29.79,North,10,8.0,22.0,55,0.00,,,0.00,weatherlink.com 1.10,2013-02-20 20:59:00,
2013-02-20 16:14:00,28.0,14.0,29.79,North,355,6.0,14.0,55,0.00,,,0.00,weatherlink.com 1.10,2013-02-20 21:14:00,
2013-02-20 16:29:00,27.1,14.0,29.80,NW,322,7.0,23.0,57,0.00,,,0.00,weatherlink.com 1.10,2013-02-20 21:29:00,
2013-02-20 16:44:00,27.4,13.0,29.81,NNE,13,8.0,17.0,56,0.00,,,0.00,weatherlink.com 1.10,2013-02-20 21:44:00,
2013-02-20 16:59:00,26.6,13.0,29.81,NNW,336,7.0,22.0,56,0.00,,,0.00,weatherlink.com 1.10,2013-02-20 21:59:00,
2013-02-20 17:14:00,26.1,12.0,29.80,NW,306,13.0,24.0,55,0.00,,,0.00,weatherlink.com 1.10,2013-02-20 22:14:00,
2013-02-20 17:29:00,25.8,12.0,29.80,NNW,345,11.0,17.0,55,0.00,,,0.00,weatherlink.com 1.10,2013-02-20 22:29:00,
2013-02-20 17:44:00,25.4,10.0,29.81,NNW,332,11.0,16.0,53,0.00,,,0.00,weatherlink.com 1.10,2013-02-20 22:44:00,
2013-02-20 17:59:00,24.9,10.0,29.81,North,350,9.0,19.0,53,0.00,,,0.00,weatherlink.com 1.10,2013-02-20 22:59:00,
2013-02-20 18:14:00,24.4,9.0,29.83,NNW,329,8.0,16.0,52,0.00,,,0.00,weatherlink.com 1.10,2013-02-20 23:14:00,
2013-02-20 18:29:00,23.9,9.0,29.84,North,355,8.0,14.0,53,0.00,,,0.00,weatherlink.com 1.10,2013-02-20 23:29:00,
2013-02-20 18:44:00,23.8,9.0,29.84,NW,322,12.0,18.0,54,0.00,,,0.00,weatherlink.com 1.10,2013-02-20 23:44:00,
2013-02-20 18:59:00,23.5,10.0,29.86,NW,324,10.0,14.0,57,0.00,,,0.00,weatherlink.com 1.10,2013-02-20 23:59:00,
2013-02-20 19:14:00,23.3,11.0,29.86,North,355,5.0,17.0,60,0.00,,,0.00,weatherlink.com 1.10,2013-02-21 00:14:00,
2013-02-20 19:29:00,23.1,11.0,29.87,NNW,336,6.0,14.0,61,0.00,,,0.00,weatherlink.com 1.10,2013-02-21 00:29:00,
2013-02-20 19:44:00,22.8,11.0,29.87,NNW,337,8.0,14.0,62,0.00,,,0.00,weatherlink.com 1.10,2013-02-21 00:44:00,
2013-02-20 19:59:00,22.7,11.0,29.87,NNW,342,8.0,16.0,61,0.00,,,0.00,weatherlink.com 1.10,2013-02-21 00:59:00,
2013-02-20 20:14:00,22.6,11.0,29.86,NNW,328,9.0,12.0,62,0.00,,,0.00,weatherlink.com 1.10,2013-02-21 01:14:00,
2013-02-20 20:30:00,22.4,11.0,29.87,NNW,339,9.0,13.0,62,0.00,,,0.00,weatherlink.com 1.10,2013-02-21 01:30:00,
2013-02-20 20:45:00,22.2,11.0,29.87,NW,321,4.0,11.0,62,0.00,,,0.00,weatherlink.com 1.10,2013-02-21 01:45:00,
2013-02-20 21:00:00,22.3,11.0,29.88,WNW,293,4.0,13.0,62,0.00,,,0.00,weatherlink.com 1.10,2013-02-21 02:00:00,
2013-02-20 21:15:00,22.2,11.0,29.88,NW,307,7.0,16.0,62,0.00,,,0.00,weatherlink.com 1.10,2013-02-21 02:15:00,
2013-02-20 21:30:00,22.0,11.0,29.88,North,350,3.0,12.0,63,0.00,,,0.00,weatherlink.com 1.10,2013-02-21 02:30:00,
2013-02-20 21:45:00,21.9,11.0,29.88,NNW,329,6.0,15.0,63,0.00,,,0.00,weatherlink.com 1.10,2013-02-21 02:45:00,
2013-02-20 22:00:00,21.8,11.0,29.89,NW,313,4.0,12.0,64,0.00,,,0.00,weatherlink.com 1.10,2013-02-21 03:00:00,
2013-02-20 22:15:00,21.8,11.0,29.89,NNW,329,4.0,12.0,64,0.00,,,0.00,weatherlink.com 1.10,2013-02-21 03:15:00,
2013-02-20 22:30:00,21.7,11.0,29.89,NW,315,4.0,13.0,64,0.00,,,0.00,weatherlink.com 1.10,2013-02-21 03:30:00,
2013-02-20 22:45:00,21.8,12.0,29.89,North,5,7.0,13.0,65,0.00,,,0.00,weatherlink.com 1.10,2013-02-21 03:45:00,
2013-02-20 23:00:00,21.7,12.0,29.88,North,5,4.0,10.0,66,0.00,,,0.00,weatherlink.com 1.10,2013-02-21 04:00:00,
2013-02-20 23:15:00,21.8,12.0,29.89,NW,324,4.0,13.0,66,0.00,,,0.00,weatherlink.com 1.10,2013-02-21 04:15:00,
2013-02-20 23:30:00,21.7,12.0,29.90,NNW,328,4.0,11.0,66,0.00,,,0.00,weatherlink.com 1.10,2013-02-21 04:30:00,
2013-02-20 23:45:00,21.8,12.0,29.91,NNW,334,6.0,16.0,66,0.00,,,0.00,weatherlink.com 1.10,2013-02-21 04:45:00,